ONEWEB-0622 (55163 NORAD) Tracking and Keplerian Element Data

This shows tracking and keplerian element data for the satellite.

Feedback or suggestion? Click here.




ElementValue
Catalog55163
NameONEWEB-0622
Epoch Orbit130
Epoch Day13.91667824
Epoch Year2023
RAAN284.1449
Inclination86.5133
Eccentricity0.0008144
Argument of Perigee202.3718
Mean Anonmoly56.9832
Mean Motion14.90482074
Decay Rate-0.00050069
L11 55163U 23004Z 23013.91667824 -.00050069 00000+0 -51760-2 0 9993
L22 55163 86.5133 284.1449 0008144 202.3718 56.9832 14.90482074 1306



Live tracking and technical data element details for ONEWEB-0622 (NORAD 55163). ONEWEB-0622 can be tracked NOW for your location showing map with azimuth and elevation plus other details from your city location.







IsCatalogInMostPopularTable: catalog: 55163, numindb: 3
Update: records affected: 1



GetName: 55163 ONEWEB-0622

Hit Count: updated at: Tue, 07 Feb 2023 14:47:51 GMT